RH
20 31 51 59 65 65 62 64 64 65 70 73 71 66 65 63 60 57 48 48 51 52 60 67 63 63 65 63 56 58 63 63 62 69 63 72 71 70 70 68 67 61 60
22 26 43 55 63 64 65 64 62 66 67 70 66 64 65 65 65 63 53 49 49 54 55 62 66 63 68 67 62 63 70 66 64 69 74 68 75 70 67 69 62 64 62
22 26 26 46 60 65 69 63 62 65 65 62 67 64 67 69 68 65 64 56 49 55 59 63 67 68 70 75 67 68 68 72 70 62 71 76 75 69 71 71 69 63 58
28 24 25 31 56 64 69 64 62 64 62 65 69 67 70 70 68 65 62 58 50 55 59 64 67 70 72 71 71 56 68 68 72 70 55 69 70 78 78 66 69 60 48
32 29 35 33 46 66 73 70 65 64 61 67 68 71 70 64 64 62 57 58 54 52 57 65 71 74 75 74 71 72 71 69 68 74 72 71 71 67 79 80 70 63 58
37 37 43 41 58 74 75 74 69 64 62 69 68 69 71 67 65 64 65 64 60 61 61 61 69 73 74 75 76 73 71 71 74 74 72 72 74 74 78 82 81 77 66
40 42 50 52 64 71 75 72 68 65 62 67 71 70 72 73 65 64 67 61 60 62 63 66 68 72 71 71 72 74 77 79 80 81 78 72 70 70 73 80 84 84 73
42 45 48 53 61 66 70 65 64 61 61 65 70 71 69 75 71 64 62 60 58 59 56 62 62 60 60 65 69 77 80 80 84 83 81 76 72 70 72 77 84 91 80
47 48 50 51 52 56 61 62 59 55 55 61 67 70 72 70 70 63 60 63 57 49 54 59 60 59 57 57 63 74 75 74 76 78 78 77 74 72 72 73 77 84 93
52 55 57 59 59 58 58 57 53 51 52 55 60 62 67 68 67 66 64 63 58 53 52 54 58 56 52 53 56 65 65 65 69 69 72 72 73 72 74 78 78 80 86
58 60 62 62 64 65 68 70 68 63 60 57 54 59 63 60 64 66 64 61 59 55 53 52 53 53 51 49 52 55 57 58 61 63 65 67 65 72 74 77 80 82 84
63 64 65 67 68 68 70 73 74 72 69 65 64 64 62 62 63 63 62 59 57 55 53 51 51 51 50 48 48 49 48 51 55 58 62 63 53 66 70 74 74 81 82
65 66 69 71 70 68 67 68 70 70 68 68 70 68 70 70 69 69 66 62 62 59 56 54 55 53 54 54 53 52 50 50 51 53 56 58 59 64 70 72 76 76 62
64 69 72 73 71 68 69 70 72 72 70 71 72 73 74 73 72 71 70 69 67 67 65 63 61 61 58 55 55 54 56 56 52 56 58 57 58 61 63 63 69 67 78
65 69 75 76 73 72 70 69 72 71 70 71 72 71 68 66 66 66 66 67 70 70 71 71 70 69 65 56 72 66 64 66 66 64 58 57 64 70 68 56 69 71 76
66 66 64 61 59 56 58 54 58 61 60 62 63 60 59 57 59 58 57 59 62 64 66 65 66 67 56 71 73 76 80 74 71 69 60 60 68 66 69 71 72 70 73
70 65 59 56 51 48 43 45 44 48 51 54 52 53 54 54 56 53 53 56 58 61 64 66 67 69 71 63 62 69 81 84 90 90 85 74 60 72 68 67 73 72 70
64 58 53 47 43 42 41 34 33 33 39 43 43 45 50 52 53 50 50 53 56 60 63 65 66 70 64 66 68 73 80 86 83 83 86 86 84 80 76 76 76 76 69
53 49 45 43 40 41 39 35 31 31 30 36 38 40 45 49 51 50 50 51 52 56 61 61 66 68 67 66 66 65 72 74 76 70 74 78 84 79 70 79 85 82 79
46 45 43 38 41 42 41 42 39 39 41 46 46 45 50 51 48 46 47 50 51 46 43 47 55 58 57 58 59 60 68 76 72 74 70 71 74 74 74 83 91 93 87
49 47 45 43 44 44 46 48 47 46 47 47 48 50 50 50 48 48 45 44 44 41 43 37 39 42 43 43 51 53 53 66 66 64 63 61 61 66 64 66 82 85 82
54 51 47 46 45 47 49 51 50 47 45 48 49 48 45 40 34 43 45 43 44 45 44 42 41 39 37 45 47 51 54 53 59 68 69 72 65 65 64 62 67 68 69
48 45 44 42 40 38 40 44 44 42 46 48 49 49 46 44 43 47 49 47 48 48 44 43 46 48 42 45 50 47 46 49 57 62 64 65 68 66 67 67 64 65 80
45 42 44 45 46 42 40 43 43 44 48 52 53 52 53 49 49 47 48 53 50 54 52 53 55 56 55 56 58 56 65 65 63 65 69 67 64 65 65 64 68 73 84
48 50 53 52 48 45 45 45 46 50 54 56 57 57 53 56 55 52 53 55 53 57 59 63 64 65 66 63 63 62 63 68 67 68 73 82 84 79 78 78 83 90 92
51 51 50 50 51 52 52 51 52 53 58 62 61 65 59 59 60 60 54 52 54 55 57 58 59 55 59 61 62 64 65 66 66 69 86 87 83 84 83 86 86 91 85
Wind_Speed
9 10 11 10 9 7 7 8 8 7 5 3 3 2 3 2 1 2 4 1 1 1 3 2 2 1 1 1 2 2 4 3 4 4 5 3 3 1 1 3 4 5 4
9 9 10 9 9 8 7 8 7 7 5 4 2 2 3 2 3 2 2 2 2 1 2 2 2 1 2 4 4 4 3 3 4 2 2 3 3 3 2 2 1 3 4
6 6 7 9 9 9 8 7 7 8 5 5 4 3 4 3 1 1 1 2 1 0 1 3 2 3 2 2 1 2 4 2 3 4 1 4 3 4 2 1 1 2 2
2 3 3 6 9 8 8 8 8 8 6 7 4 5 4 3 3 3 3 2 3 1 1 2 2 2 1 2 1 2 2 2 3 4 2 1 3 2 5 3 2 2 2
6 6 4 2 7 8 8 7 7 7 6 6 5 4 2 1 2 2 2 2 2 3 1 1 2 2 0 1 2 2 3 2 0 0 2 2 2 3 2 4 5 4 1
7 7 4 4 7 8 8 6 6 5 6 6 4 4 4 3 2 2 2 2 2 2 3 2 1 2 2 1 1 1 2 2 2 2 2 1 1 2 1 2 3 4 4
7 6 6 3 7 8 7 5 5 4 5 5 4 4 3 3 4 3 3 3 2 2 3 4 2 2 3 2 1 1 1 2 2 3 3 2 2 1 1 1 4 3 4
8 8 6 5 6 7 6 5 6 4 6 6 6 5 5 3 3 3 2 2 2 2 3 3 2 3 3 2 3 2 2 3 3 5 4 3 3 2 2 2 1 4 3
8 8 9 8 8 6 3 4 4 4 4 6 5 5 5 4 4 4 2 2 2 2 3 3 3 4 4 4 3 2 3 4 4 5 5 3 4 3 3 2 2 3 3
8 8 7 8 7 7 8 9 8 5 3 2 4 4 5 6 5 3 3 4 4 2 3 3 4 4 4 4 4 3 4 4 4 4 5 5 3 4 3 3 3 3 4
8 7 7 7 7 7 8 8 8 8 8 7 5 2 2 2 3 2 2 3 3 3 3 3 4 4 4 5 4 5 6 6 6 5 6 7 6 4 4 3 4 4 4
8 7 7 7 7 8 8 8 7 8 7 7 8 8 8 7 5 3 2 2 2 3 3 3 3 4 4 4 4 5 5 6 6 7 6 7 4 6 6 4 6 5 5
8 7 7 7 7 7 7 8 8 8 9 9 10 10 10 9 9 8 7 7 7 6 6 5 4 4 5 5 5 5 6 6 6 6 6 7 6 6 4 5 5 5 5
8 7 7 6 7 7 7 7 7 7 7 8 8 8 8 8 7 7 7 7 6 6 6 6 6 6 6 5 5 5 5 6 6 6 6 7 6 6 6 6 6 6 5
7 7 6 6 6 6 6 7 7 7 6 7 7 7 7 7 7 7 7 7 7 6 6 6 6 6 5 4 6 6 6 6 7 6 7 7 7 10 9 6 5 5 4
8 7 7 7 6 6 6 6 6 6 6 6 6 6 6 6 6 6 6 6 6 6 6 6 6 6 5 11 10 7 4 6 8 9 8 6 8 7 11 14 15 11 8
7 6 7 6 6 6 5 5 5 5 5 6 5 5 5 6 6 6 6 6 6 5 5 5 5 5 6 11 11 10 4 5 6 7 7 7 8 9 9 13 18 18 20
7 7 6 6 6 5 5 4 5 4 5 4 4 4 4 5 5 5 5 5 4 5 5 6 6 6 6 12 12 11 5 5 7 7 7 7 6 7 10 10 9 10 11
7 7 7 6 6 5 4 4 3 3 3 3 4 4 5 5 6 6 6 6 5 5 5 6 7 7 7 13 15 13 7 6 7 7 7 6 6 12 18 10 9 9 9
7 6 6 4 6 3 3 3 2 3 3 4 5 5 5 6 6 6 6 4 5 6 5 6 7 10 8 12 16 14 5 6 5 6 7 15 12 17 19 11 7 8 10
7 6 5 5 4 3 3 3 4 4 4 3 4 5 6 6 7 6 5 5 6 7 6 9 8 8 8 9 14 16 6 4 4 5 6 6 16 18 19 18 6 9 9
6 5 4 4 2 2 1 2 3 5 4 5 6 6 6 6 6 7 6 6 6 6 7 7 7 6 6 10 10 17 17 12 4 5 6 7 16 18 21 17 18 21 19
5 4 4 2 2 3 3 4 5 4 5 5 6 6 6 6 6 6 6 6 6 5 8 7 7 6 6 5 13 18 18 17 7 4 9 18 19 20 15 15 20 20 6
5 4 4 4 3 4 4 4 5 5 5 6 6 5 5 8 6 5 5 5 6 5 6 7 8 8 9 8 6 6 5 8 8 11 9 13 18 21 17 15 11 7 7
4 3 2 3 4 4 4 5 5 5 5 6 6 6 6 6 6 7 6 5 6 6 7 6 7 9 10 9 16 17 10 9 11 15 7 5 5 7 7 6 6 5 5
3 3 3 4 5 6 6 6 6 6 5 5 5 5 7 6 6 7 9 11 16 19 20 22 18 11 20 25 25 24 23 23 23 11 8 8 7 7 7 6 6 4 8
Wind_Direction
177 154 137 138 136 150 156 154 151 156 137 131 149 164 187 183 147 119 100 141 79 27 337 325 10 331 10 288 348 1 355 325 352 354 338 277 201 165 10 28 15 17 3
105 115 134 136 148 158 160 152 157 152 154 159 173 119 119 102 112 116 111 86 9 33 290 358 350 15 32 359 25 27 5 326 23 5 272 333 331 333 197 120 351 21 4
75 148 146 154 150 156 162 160 164 156 159 139 101 64 51 37 53 195 184 173 201 157 338 347 5 351 91 338 17 37 21 7 325 50 93 354 337 325 292 226 99 25 29
122 63 95 165 154 161 151 163 162 153 156 145 146 166 173 184 197 143 135 165 179 209 92 359 343 357 39 6 358 56 24 17 336 341 23 175 176 338 336 335 310 311 65
64 73 82 314 151 132 143 150 151 149 151 159 173 175 205 189 146 114 151 205 192 179 136 84 7 325 333 323 71 0 358 353 342 358 332 326 288 239 196 285 317 348 323
101 84 40 69 107 109 120 133 143 163 157 157 191 188 195 196 140 200 188 233 197 178 169 171 224 255 271 286 292 327 333 287 347 316 296 231 254 310 354 322 320 284 302
69 105 106 79 106 114 128 145 157 174 170 166 185 204 227 235 210 219 197 208 195 206 212 174 227 228 227 216 214 292 285 279 255 276 285 297 274 256 266 295 287 284 294
75 71 81 120 132 143 152 165 171 187 181 181 198 203 207 205 223 227 227 210 192 198 164 161 231 259 242 232 235 216 242 245 251 261 266 272 276 282 226 221 292 322 304
76 71 56 48 49 65 121 160 177 195 194 196 194 204 210 212 220 230 219 222 245 200 177 197 231 251 240 236 230 222 245 246 238 241 250 248 256 259 252 236 203 186 305
80 71 64 56 49 45 42 38 28 14 350 263 201 204 210 207 212 216 236 227 241 241 209 223 233 248 252 242 235 243 258 255 256 238 244 249 248 253 246 226 227 214 205
93 84 72 60 56 52 51 39 28 26 16 9 351 330 271 221 197 196 253 275 253 247 259 243 254 251 256 257 247 244 249 255 257 261 255 253 246 256 256 245 233 228 205
99 89 80 70 58 56 53 41 29 30 18 15 24 23 22 18 24 10 295 250 304 340 313 291 300 301 290 283 276 279 284 271 266 260 261 263 252 249 246 239 241 233 225
105 90 75 69 62 56 56 48 35 34 32 36 39 35 31 29 28 27 23 25 21 7 355 351 323 292 295 300 299 284 282 281 280 279 273 270 267 269 258 249 245 241 250
106 100 86 76 72 68 65 55 41 36 39 41 41 40 33 29 26 21 20 21 12 10 3 356 350 345 336 328 317 314 314 305 296 294 288 279 268 263 270 268 253 253 244
108 100 98 88 76 69 60 55 44 34 41 44 41 35 30 29 23 20 14 15 15 17 5 4 358 355 348 354 9 353 335 317 304 297 289 279 266 256 248 260 269 285 281
123 119 107 92 78 69 68 68 63 52 50 51 47 34 28 27 19 12 10 13 7 3 8 4 2 351 343 340 337 338 313 303 300 297 297 302 296 285 286 284 265 251 273
129 118 103 93 88 78 83 68 70 70 62 55 46 34 20 11 2 350 355 354 347 346 337 326 322 313 311 310 310 306 289 286 273 273 283 296 305 305 307 297 291 287 262
135 126 122 110 93 76 51 62 56 45 63 44 31 17 7 345 333 332 328 322 309 306 302 299 295 286 282 285 294 289 277 271 271 264 255 252 269 278 290 290 284 270 270
116 104 100 109 102 88 59 22 65 14 72 38 359 344 342 332 324 321 315 307 304 299 287 276 277 275 269 270 277 283 272 258 266 274 270 254 267 275 282 278 273 281 283
111 115 115 113 102 98 69 15 22 359 29 12 341 335 328 312 300 292 291 279 288 281 281 281 274 275 278 274 278 278 259 258 265 273 273 267 254 266 271 266 264 269 266
113 121 122 117 121 97 48 8 358 347 323 299 294 296 295 294 289 287 286 287 286 287 286 285 276 269 267 271 281 291 285 252 265 274 292 291 288 287 292 293 259 252 264
124 107 111 111 110 134 111 308 318 301 322 324 313 301 293 292 295 289 285 282 283 284 280 279 285 279 275 287 300 301 294 288 264 268 274 272 291 297 302 298 289 287 283
131 130 98 61 347 20 18 332 298 317 317 306 291 288 289 287 284 286 288 291 279 284 295 292 291 299 304 291 293 299 302 300 298 260 272 288 295 293 294 292 292 294 287
84 68 48 27 356 340 330 308 312 309 309 302 300 297 298 301 296 297 298 301 302 294 301 305 300 298 299 302 296 289 292 311 308 296 286 282 290 294 290 295 289 274 266
59 55 24 335 311 319 322 317 317 323 311 301 302 304 305 298 304 297 285 287 279 283 300 302 294 297 292 286 287 292 294 292 285 296 285 280 280 284 281 274 268 262 264
6 6 338 335 338 340 328 322 319 318 310 305 303 293 303 296 299 302 299 295 308 312 310 308 303 298 294 299 296 294 294 296 297 293 290 281 275 272 275 275 279 268 283